Year,Month,Day,Hour,Minute,Value (Times are PST for temperature in C)
2012,10,06,00,00,9.70
2012,10,06,00,01,9.70
2012,10,06,00,02,9.70
2012,10,06,00,03,9.70
2012,10,06,00,04,9.70
2012,10,06,00,05,9.60
2012,10,06,00,06,9.60
2012,10,06,00,07,9.60
2012,10,06,00,08,9.60
2012,10,06,00,09,9.50
2012,10,06,00,10,9.50
2012,10,06,00,11,9.50
2012,10,06,00,12,9.50
2012,10,06,00,13,9.50
2012,10,06,00,14,9.50
2012,10,06,00,15,9.40
2012,10,06,00,16,9.40
2012,10,06,00,17,9.40
2012,10,06,00,18,9.50
2012,10,06,00,19,9.50
2012,10,06,00,20,9.50
2012,10,06,00,21,9.50
2012,10,06,00,22,9.60
2012,10,06,00,23,9.60
2012,10,06,00,24,9.60
2012,10,06,00,25,9.60
2012,10,06,00,26,9.60
2012,10,06,00,27,9.60
2012,10,06,00,28,9.60
2012,10,06,00,29,9.60
2012,10,06,00,30,9.60
2012,10,06,00,31,9.60
2012,10,06,00,32,9.60
2012,10,06,00,33,9.60
2012,10,06,00,34,9.60
2012,10,06,00,35,9.60
2012,10,06,00,36,9.50
2012,10,06,00,37,9.50
2012,10,06,00,38,9.50
2012,10,06,00,39,9.40
2012,10,06,00,40,9.40
2012,10,06,00,41,9.40
2012,10,06,00,42,9.40
2012,10,06,00,43,9.40
2012,10,06,00,44,9.40
2012,10,06,00,45,9.30
2012,10,06,00,46,9.30
2012,10,06,00,47,9.30
2012,10,06,00,48,9.30
2012,10,06,00,49,9.30
2012,10,06,00,50,9.30
2012,10,06,00,51,9.30
2012,10,06,00,52,9.30
2012,10,06,00,53,9.30
2012,10,06,00,54,9.30
2012,10,06,00,55,9.30
2012,10,06,00,56,9.20
2012,10,06,00,57,9.20
2012,10,06,00,58,9.20
2012,10,06,00,59,9.10
2012,10,06,01,00,9.10
2012,10,06,01,01,9.00
2012,10,06,01,02,9.00
2012,10,06,01,03,8.90
2012,10,06,01,04,8.90
2012,10,06,01,05,8.80
2012,10,06,01,06,8.80
2012,10,06,01,07,8.80
2012,10,06,01,08,8.70
2012,10,06,01,09,8.70
2012,10,06,01,10,8.70
2012,10,06,01,11,8.70
2012,10,06,01,12,8.60
2012,10,06,01,13,8.60
2012,10,06,01,14,8.60
2012,10,06,01,15,8.60
2012,10,06,01,16,8.60
2012,10,06,01,17,8.60
2012,10,06,01,18,8.50
2012,10,06,01,19,8.50
2012,10,06,01,20,8.50
2012,10,06,01,21,8.50
2012,10,06,01,22,8.50
2012,10,06,01,23,8.50
2012,10,06,01,24,8.50
2012,10,06,01,25,8.60
2012,10,06,01,26,8.60
2012,10,06,01,27,8.60
2012,10,06,01,28,8.60
2012,10,06,01,29,8.60
2012,10,06,01,30,8.60
2012,10,06,01,31,8.60
2012,10,06,01,32,8.60
2012,10,06,01,33,8.60
2012,10,06,01,34,8.60
2012,10,06,01,35,8.60
2012,10,06,01,36,8.60
2012,10,06,01,37,8.60
2012,10,06,01,38,8.70
2012,10,06,01,39,8.70
2012,10,06,01,40,8.70
2012,10,06,01,41,8.70
2012,10,06,01,42,8.70
2012,10,06,01,43,8.70
2012,10,06,01,44,8.70
2012,10,06,01,45,8.70
2012,10,06,01,46,8.70
2012,10,06,01,47,8.70
2012,10,06,01,48,8.70
2012,10,06,01,49,8.70
2012,10,06,01,50,8.70
2012,10,06,01,51,8.60
2012,10,06,01,52,8.60
2012,10,06,01,53,8.60
2012,10,06,01,54,8.60
2012,10,06,01,55,8.60
2012,10,06,01,56,8.50
2012,10,06,01,57,8.50
2012,10,06,01,58,8.50
2012,10,06,01,59,8.50
2012,10,06,02,00,8.40
2012,10,06,02,01,8.40
2012,10,06,02,02,8.40
2012,10,06,02,03,8.40
2012,10,06,02,04,8.40
2012,10,06,02,05,8.40
2012,10,06,02,06,8.40
2012,10,06,02,07,8.40
2012,10,06,02,08,8.40
2012,10,06,02,09,8.30
2012,10,06,02,10,8.30
2012,10,06,02,11,8.30
2012,10,06,02,12,8.30
2012,10,06,02,13,8.20
2012,10,06,02,14,8.20
2012,10,06,02,15,8.20
2012,10,06,02,16,8.10
2012,10,06,02,17,8.10
2012,10,06,02,18,8.00
2012,10,06,02,19,8.00
2012,10,06,02,20,7.90
2012,10,06,02,21,7.90
2012,10,06,02,22,7.90
2012,10,06,02,23,7.80
2012,10,06,02,24,7.80
2012,10,06,02,25,7.80
2012,10,06,02,26,7.80
2012,10,06,02,27,7.80
2012,10,06,02,28,7.70
2012,10,06,02,29,7.70
2012,10,06,02,30,7.70
2012,10,06,02,31,7.60
2012,10,06,02,32,7.60
2012,10,06,02,33,7.60
2012,10,06,02,34,7.60
2012,10,06,02,35,7.60
2012,10,06,02,36,7.60
2012,10,06,02,37,7.60
2012,10,06,02,38,7.60
2012,10,06,02,39,7.60
2012,10,06,02,40,7.60
2012,10,06,02,41,7.60
2012,10,06,02,42,7.60
2012,10,06,02,43,7.60
2012,10,06,02,44,7.70
2012,10,06,02,45,7.70
2012,10,06,02,46,7.70
2012,10,06,02,47,7.70
2012,10,06,02,48,7.70
2012,10,06,02,49,7.70
2012,10,06,02,50,7.70
2012,10,06,02,51,7.70
2012,10,06,02,52,7.70
2012,10,06,02,53,7.80
2012,10,06,02,54,7.80
2012,10,06,02,55,7.80
2012,10,06,02,56,7.80
2012,10,06,02,57,7.80
2012,10,06,02,58,7.80
2012,10,06,02,59,7.80
2012,10,06,03,00,7.80
2012,10,06,03,01,7.80
2012,10,06,03,02,7.80
2012,10,06,03,03,7.80
2012,10,06,03,06,7.80
2012,10,06,03,07,7.80
2012,10,06,03,08,7.80
2012,10,06,03,09,7.80
2012,10,06,03,10,7.80
2012,10,06,03,11,7.80
2012,10,06,03,12,7.70
2012,10,06,03,13,7.70
2012,10,06,03,14,7.70
2012,10,06,03,15,7.70
2012,10,06,03,16,7.70
2012,10,06,03,17,7.70
2012,10,06,03,18,7.70
2012,10,06,03,19,7.70
2012,10,06,03,20,7.70
2012,10,06,03,21,7.70
2012,10,06,03,22,7.70
2012,10,06,03,23,7.80
2012,10,06,03,24,7.80
2012,10,06,03,25,7.80
2012,10,06,03,26,7.80
2012,10,06,03,27,7.80
2012,10,06,03,28,7.80
2012,10,06,03,29,7.80
2012,10,06,03,30,7.80
2012,10,06,03,31,7.80
2012,10,06,03,32,7.80
2012,10,06,03,33,7.90
2012,10,06,03,34,7.90
2012,10,06,03,35,8.00
2012,10,06,03,36,8.00
2012,10,06,03,37,8.00
2012,10,06,03,38,8.00
2012,10,06,03,39,8.00
2012,10,06,03,40,8.10
2012,10,06,03,41,8.10
2012,10,06,03,42,8.10
2012,10,06,03,43,8.10
2012,10,06,03,44,8.00
2012,10,06,03,45,8.00
2012,10,06,03,46,8.00
2012,10,06,03,47,8.00
2012,10,06,03,48,7.90
2012,10,06,03,49,7.90
2012,10,06,03,50,7.90
2012,10,06,03,51,7.80
2012,10,06,03,52,7.80
2012,10,06,03,53,7.80
2012,10,06,03,54,7.80
2012,10,06,03,55,7.80
2012,10,06,03,56,7.70
2012,10,06,03,57,7.70
2012,10,06,03,58,7.70
2012,10,06,03,59,7.70
2012,10,06,04,00,7.70
2012,10,06,04,01,7.60
2012,10,06,04,02,7.60
2012,10,06,04,03,7.60
2012,10,06,04,04,7.60
2012,10,06,04,05,7.60
2012,10,06,04,06,7.60
2012,10,06,04,07,7.60
2012,10,06,04,08,7.50
2012,10,06,04,09,7.50
2012,10,06,04,10,7.50
2012,10,06,04,11,7.50
2012,10,06,04,12,7.50
2012,10,06,04,13,7.50
2012,10,06,04,14,7.50
2012,10,06,04,15,7.50
2012,10,06,04,16,7.50
2012,10,06,04,17,7.50
2012,10,06,04,18,7.50
2012,10,06,04,19,7.50
2012,10,06,04,20,7.50
2012,10,06,04,21,7.50
2012,10,06,04,22,7.40
2012,10,06,04,23,7.40
2012,10,06,04,24,7.40
2012,10,06,04,25,7.40
2012,10,06,04,26,7.40
2012,10,06,04,27,7.40
2012,10,06,04,28,7.40
2012,10,06,04,29,7.40
2012,10,06,04,30,7.40
2012,10,06,04,31,7.40
2012,10,06,04,32,7.40
2012,10,06,04,33,7.40
2012,10,06,04,34,7.30
2012,10,06,04,35,7.40
2012,10,06,04,36,7.40
2012,10,06,04,37,7.40
2012,10,06,04,38,7.40
2012,10,06,04,39,7.40
2012,10,06,04,40,7.40
2012,10,06,04,41,7.40
2012,10,06,04,42,7.40
2012,10,06,04,43,7.30
2012,10,06,04,44,7.30
2012,10,06,04,45,7.30
2012,10,06,04,46,7.30
2012,10,06,04,47,7.30
2012,10,06,04,48,7.30
2012,10,06,04,49,7.30
2012,10,06,04,50,7.30
2012,10,06,04,51,7.20
2012,10,06,04,52,7.20
2012,10,06,04,53,7.20
2012,10,06,04,54,7.20
2012,10,06,04,55,7.10
2012,10,06,04,56,7.10
2012,10,06,04,57,7.10
2012,10,06,04,58,7.10
2012,10,06,04,59,7.10
2012,10,06,05,00,7.10
2012,10,06,05,01,7.10
2012,10,06,05,02,7.10
2012,10,06,05,03,7.10
2012,10,06,05,04,7.10
2012,10,06,05,05,7.10
2012,10,06,05,06,7.10
2012,10,06,05,07,7.10
2012,10,06,05,08,7.10
2012,10,06,05,09,7.10
2012,10,06,05,10,7.10
2012,10,06,05,11,7.10
2012,10,06,05,12,7.10
2012,10,06,05,13,7.00
2012,10,06,05,14,7.00
2012,10,06,05,15,6.90
2012,10,06,05,16,6.90
2012,10,06,05,17,6.90
2012,10,06,05,18,6.90
2012,10,06,05,19,6.80
2012,10,06,05,20,6.80
2012,10,06,05,21,6.80
2012,10,06,05,22,6.70
2012,10,06,05,23,6.70
2012,10,06,05,24,6.70
2012,10,06,05,25,6.70
2012,10,06,05,26,6.70
2012,10,06,05,27,6.70
2012,10,06,05,28,6.70
2012,10,06,05,29,6.60
2012,10,06,05,30,6.60
2012,10,06,05,31,6.60
2012,10,06,05,32,6.60
2012,10,06,05,33,6.60
2012,10,06,05,34,6.60
2012,10,06,05,35,6.60
2012,10,06,05,36,6.60
2012,10,06,05,37,6.60
2012,10,06,05,38,6.70
2012,10,06,05,39,6.70
2012,10,06,05,40,6.70
2012,10,06,05,41,6.70
2012,10,06,05,42,6.70
2012,10,06,05,43,6.70
2012,10,06,05,44,6.70
2012,10,06,05,45,6.70
2012,10,06,05,46,6.70
2012,10,06,05,47,6.70
2012,10,06,05,48,6.70
2012,10,06,05,49,6.70
2012,10,06,05,50,6.70
2012,10,06,05,51,6.70
2012,10,06,05,52,6.70
2012,10,06,05,53,6.70
2012,10,06,05,54,6.70
2012,10,06,05,55,6.70
2012,10,06,05,56,6.70
2012,10,06,05,57,6.70
2012,10,06,05,58,6.70
2012,10,06,05,59,6.70
2012,10,06,06,00,6.70
2012,10,06,06,01,6.70
2012,10,06,06,02,6.70
2012,10,06,06,03,6.70
2012,10,06,06,04,6.70
2012,10,06,06,05,6.70
2012,10,06,06,06,6.70
2012,10,06,06,07,6.70
2012,10,06,06,08,6.70
2012,10,06,06,09,6.70
2012,10,06,06,10,6.70
2012,10,06,06,11,6.70
2012,10,06,06,12,6.60
2012,10,06,06,13,6.60
2012,10,06,06,14,6.60
2012,10,06,06,15,6.60
2012,10,06,06,16,6.60
2012,10,06,06,17,6.60
2012,10,06,06,18,6.60
2012,10,06,06,19,6.50
2012,10,06,06,20,6.30
2012,10,06,06,21,6.30
2012,10,06,06,22,6.30
2012,10,06,06,23,6.20
2012,10,06,06,24,6.20
2012,10,06,06,25,6.20
2012,10,06,06,26,6.10
2012,10,06,06,27,6.10
2012,10,06,06,28,6.00
2012,10,06,06,29,6.00
2012,10,06,06,30,5.90
2012,10,06,06,31,5.90
2012,10,06,06,32,5.90
2012,10,06,06,33,5.80
2012,10,06,06,34,5.80
2012,10,06,06,35,5.80
2012,10,06,06,36,5.80
2012,10,06,06,37,5.80
2012,10,06,06,38,5.80
2012,10,06,06,39,5.80
2012,10,06,06,40,5.80
2012,10,06,06,41,5.80
2012,10,06,06,42,5.80
2012,10,06,06,43,5.80
2012,10,06,06,44,5.80
2012,10,06,06,45,5.80
2012,10,06,06,46,5.80
2012,10,06,06,47,5.80
2012,10,06,06,48,5.80
2012,10,06,06,49,5.80
2012,10,06,06,50,5.80
2012,10,06,06,51,5.80
2012,10,06,06,52,5.70
2012,10,06,06,53,5.70
2012,10,06,06,54,5.70
2012,10,06,06,55,5.70
2012,10,06,06,56,5.70
2012,10,06,06,57,5.70
2012,10,06,06,58,5.70
2012,10,06,06,59,5.70
2012,10,06,07,00,5.70
2012,10,06,07,01,5.70
2012,10,06,07,02,5.70
2012,10,06,07,03,5.70
2012,10,06,07,04,5.70
2012,10,06,07,05,5.70
2012,10,06,07,06,5.70
2012,10,06,07,07,5.70
2012,10,06,07,08,5.70
2012,10,06,07,09,5.70
2012,10,06,07,10,5.70
2012,10,06,07,11,5.70
2012,10,06,07,12,5.70
2012,10,06,07,13,5.70
2012,10,06,07,14,5.70
2012,10,06,07,15,5.80
2012,10,06,07,16,5.80
2012,10,06,07,17,5.80
2012,10,06,07,18,5.80
2012,10,06,07,19,5.80
2012,10,06,07,20,5.80
2012,10,06,07,21,5.80
2012,10,06,07,22,5.80
2012,10,06,07,23,5.80
2012,10,06,07,24,5.70
2012,10,06,07,25,5.70
2012,10,06,07,26,5.70
2012,10,06,07,27,5.70
2012,10,06,07,28,5.70
2012,10,06,07,29,5.70
2012,10,06,07,30,5.70
2012,10,06,07,31,5.70
2012,10,06,07,32,5.70
2012,10,06,07,33,5.70
2012,10,06,07,34,5.70
2012,10,06,07,35,5.70
2012,10,06,07,36,5.70
2012,10,06,07,37,5.70
2012,10,06,07,38,5.70
2012,10,06,07,39,5.60
2012,10,06,07,40,5.60
2012,10,06,07,41,5.60
2012,10,06,07,42,5.50
2012,10,06,07,43,5.50
2012,10,06,07,44,5.50
2012,10,06,07,45,5.40
2012,10,06,07,46,5.40
2012,10,06,07,47,5.50
2012,10,06,07,48,5.50
2012,10,06,07,49,5.50
2012,10,06,07,50,5.60
2012,10,06,07,51,5.60
2012,10,06,07,52,5.60
2012,10,06,07,53,5.70
2012,10,06,07,54,5.70
2012,10,06,07,55,5.70
2012,10,06,07,56,5.70
2012,10,06,07,57,5.70
2012,10,06,07,58,5.70
2012,10,06,07,59,5.70
2012,10,06,08,00,5.70
2012,10,06,08,01,5.70
2012,10,06,08,02,5.70
2012,10,06,08,03,5.70
2012,10,06,08,04,5.70
2012,10,06,08,05,5.80
2012,10,06,08,06,6.00
2012,10,06,08,07,6.10
2012,10,06,08,08,6.10
2012,10,06,08,09,6.10
2012,10,06,08,10,6.20
2012,10,06,08,11,6.20
2012,10,06,08,12,6.20
2012,10,06,08,13,6.20
2012,10,06,08,14,6.30
2012,10,06,08,15,6.30
2012,10,06,08,16,6.30
2012,10,06,08,17,6.30
2012,10,06,08,18,6.30
2012,10,06,08,19,6.30
2012,10,06,08,20,6.30
2012,10,06,08,21,6.30
2012,10,06,08,22,6.30
2012,10,06,08,23,6.30
2012,10,06,08,24,6.30
2012,10,06,08,25,6.40
2012,10,06,08,26,6.30
2012,10,06,08,27,6.30
2012,10,06,08,28,6.30
2012,10,06,08,29,6.30
2012,10,06,08,30,6.30
2012,10,06,08,31,6.20
2012,10,06,08,32,6.20
2012,10,06,08,33,6.10
2012,10,06,08,34,6.10
2012,10,06,08,35,6.10
2012,10,06,08,36,6.10
2012,10,06,08,37,6.00
2012,10,06,08,38,6.00
2012,10,06,08,39,6.00
2012,10,06,08,40,6.00
2012,10,06,08,41,6.00
2012,10,06,08,42,6.00
2012,10,06,08,43,6.00
2012,10,06,08,44,6.00
2012,10,06,08,45,6.00
2012,10,06,08,46,6.10
2012,10,06,08,47,6.10
2012,10,06,08,48,6.20
2012,10,06,08,49,6.30
2012,10,06,08,50,6.30
2012,10,06,08,51,6.40
2012,10,06,08,52,6.50
2012,10,06,08,53,6.60
2012,10,06,08,54,6.70
2012,10,06,08,55,6.70
2012,10,06,08,56,6.80
2012,10,06,08,57,6.80
2012,10,06,08,58,6.90
2012,10,06,08,59,7.00
2012,10,06,09,00,7.10
2012,10,06,09,01,7.20
2012,10,06,09,02,7.20
2012,10,06,09,03,7.30
2012,10,06,09,04,7.40
2012,10,06,09,05,7.40
2012,10,06,09,06,7.50
2012,10,06,09,07,7.60
2012,10,06,09,08,7.60
2012,10,06,09,09,7.70
2012,10,06,09,10,7.80
2012,10,06,09,11,7.90
2012,10,06,09,12,8.00
2012,10,06,09,13,8.10
2012,10,06,09,14,8.20
2012,10,06,09,15,8.30
2012,10,06,09,16,8.40
2012,10,06,09,17,8.50
2012,10,06,09,18,8.60
2012,10,06,09,19,8.70
2012,10,06,09,20,8.80
2012,10,06,09,21,8.90
2012,10,06,09,22,9.10
2012,10,06,09,23,9.20
2012,10,06,09,24,9.20
2012,10,06,09,25,9.40
2012,10,06,09,26,9.60
2012,10,06,09,27,9.70
2012,10,06,09,28,9.80
2012,10,06,09,29,9.80
2012,10,06,09,30,9.90
2012,10,06,09,31,9.90
2012,10,06,09,32,10.00
2012,10,06,09,33,10.10
2012,10,06,09,34,10.10
2012,10,06,09,35,10.10
2012,10,06,09,36,10.20
2012,10,06,09,37,10.20
2012,10,06,09,38,10.20
2012,10,06,09,39,10.20
2012,10,06,09,40,10.30
2012,10,06,09,41,10.30
2012,10,06,09,42,10.30
2012,10,06,09,43,10.30
2012,10,06,09,44,10.30
2012,10,06,09,45,10.40
2012,10,06,09,46,10.40
2012,10,06,09,47,10.40
2012,10,06,09,48,10.40
2012,10,06,09,49,10.40
2012,10,06,09,50,10.40
2012,10,06,09,51,10.40
2012,10,06,09,52,10.50
2012,10,06,09,53,10.50
2012,10,06,09,54,10.50
2012,10,06,09,55,10.60
2012,10,06,09,56,10.60
2012,10,06,09,57,10.70
2012,10,06,09,58,10.70
2012,10,06,09,59,10.70
2012,10,06,10,00,10.80
2012,10,06,10,01,10.80
2012,10,06,10,02,10.90
2012,10,06,10,03,10.90
2012,10,06,10,04,11.00
2012,10,06,10,05,11.10
2012,10,06,10,06,11.10
2012,10,06,10,07,11.10
2012,10,06,10,08,11.10
2012,10,06,10,09,11.10
2012,10,06,10,10,11.20
2012,10,06,10,11,11.20
2012,10,06,10,12,11.20
2012,10,06,10,13,11.20
2012,10,06,10,14,11.30
2012,10,06,10,15,11.30
2012,10,06,10,16,11.30
2012,10,06,10,17,11.40
2012,10,06,10,18,11.40
2012,10,06,10,19,11.50
2012,10,06,10,20,11.50
2012,10,06,10,21,11.50
2012,10,06,10,22,11.60
2012,10,06,10,23,11.60
2012,10,06,10,24,11.60
2012,10,06,10,25,11.60
2012,10,06,10,26,11.70
2012,10,06,10,27,11.70
2012,10,06,10,28,11.80
2012,10,06,10,29,11.80
2012,10,06,10,30,11.80
2012,10,06,10,31,11.90
2012,10,06,10,32,11.90
2012,10,06,10,33,11.90
2012,10,06,10,34,11.90
2012,10,06,10,35,12.00
2012,10,06,10,36,12.00
2012,10,06,10,37,12.10
2012,10,06,10,38,12.10
2012,10,06,10,39,12.10
2012,10,06,10,40,12.20
2012,10,06,10,41,12.20
2012,10,06,10,42,12.20
2012,10,06,10,43,12.30
2012,10,06,10,44,12.30
2012,10,06,10,45,12.30
2012,10,06,10,46,12.40
2012,10,06,10,47,12.40
2012,10,06,10,48,12.40
2012,10,06,10,49,12.50
2012,10,06,10,50,12.50
2012,10,06,10,51,12.50
2012,10,06,10,52,12.60
2012,10,06,10,53,12.60
2012,10,06,10,54,12.70
2012,10,06,10,55,12.70
2012,10,06,10,56,12.80
2012,10,06,10,57,12.80
2012,10,06,10,58,12.90
2012,10,06,10,59,13.00
2012,10,06,11,00,13.10
2012,10,06,11,01,13.10
2012,10,06,11,02,13.20
2012,10,06,11,03,13.20
2012,10,06,11,04,13.30
2012,10,06,11,05,13.40
2012,10,06,11,06,13.50
2012,10,06,11,07,13.60
2012,10,06,11,08,13.60
2012,10,06,11,09,13.70
2012,10,06,11,10,13.70
2012,10,06,11,11,13.80
2012,10,06,11,12,13.80
2012,10,06,11,13,13.80
2012,10,06,11,14,13.90
2012,10,06,11,15,14.10
2012,10,06,11,16,14.20
2012,10,06,11,17,14.30
2012,10,06,11,18,14.30
2012,10,06,11,19,14.50
2012,10,06,11,20,14.50
2012,10,06,11,21,14.60
2012,10,06,11,22,14.70
2012,10,06,11,23,14.70
2012,10,06,11,24,14.80
2012,10,06,11,25,14.80
2012,10,06,11,26,14.90
2012,10,06,11,27,14.90
2012,10,06,11,28,14.90
2012,10,06,11,29,15.00
2012,10,06,11,30,15.00
2012,10,06,11,31,15.10
2012,10,06,11,32,15.10
2012,10,06,11,33,15.20
2012,10,06,11,34,15.20
2012,10,06,11,35,15.30
2012,10,06,11,36,15.30
2012,10,06,11,37,15.30
2012,10,06,11,38,15.40
2012,10,06,11,39,15.50
2012,10,06,11,40,15.50
2012,10,06,11,41,15.60
2012,10,06,11,42,15.60
2012,10,06,11,43,15.70
2012,10,06,11,44,15.70
2012,10,06,11,45,15.80
2012,10,06,11,46,15.80
2012,10,06,11,47,15.90
2012,10,06,11,48,15.90
2012,10,06,11,49,15.90
2012,10,06,11,50,16.00
2012,10,06,11,51,16.00
2012,10,06,11,52,16.10
2012,10,06,11,53,16.10
2012,10,06,11,54,16.20
2012,10,06,11,55,16.20
2012,10,06,11,56,16.20
2012,10,06,11,57,16.20
2012,10,06,11,58,16.20
2012,10,06,11,59,16.20
2012,10,06,12,00,16.30
2012,10,06,12,01,16.30
2012,10,06,12,02,16.30
2012,10,06,12,03,16.30
2012,10,06,12,04,16.40
2012,10,06,12,05,16.40
2012,10,06,12,06,16.40
2012,10,06,12,07,16.40
2012,10,06,12,08,16.50
2012,10,06,12,09,16.50
2012,10,06,12,10,16.50
2012,10,06,12,11,16.60
2012,10,06,12,12,16.60
2012,10,06,12,13,16.70
2012,10,06,12,14,16.80
2012,10,06,12,15,16.80
2012,10,06,12,16,16.90
2012,10,06,12,17,16.90
2012,10,06,12,18,17.00
2012,10,06,12,19,17.00
2012,10,06,12,20,17.00
2012,10,06,12,21,17.00
2012,10,06,12,22,17.10
2012,10,06,12,23,17.10
2012,10,06,12,24,17.20
2012,10,06,12,25,17.20
2012,10,06,12,26,17.20
2012,10,06,12,27,17.30
2012,10,06,12,28,17.30
2012,10,06,12,29,17.40
2012,10,06,12,30,17.50
2012,10,06,12,31,17.60
2012,10,06,12,32,17.70
2012,10,06,12,33,17.70
2012,10,06,12,34,17.80
2012,10,06,12,35,17.80
2012,10,06,12,36,17.90
2012,10,06,12,37,17.90
2012,10,06,12,38,18.00
2012,10,06,12,39,18.10
2012,10,06,12,40,18.10
2012,10,06,12,41,18.20
2012,10,06,12,42,18.30
2012,10,06,12,43,18.40
2012,10,06,12,44,18.50
2012,10,06,12,45,18.60
2012,10,06,12,46,18.60
2012,10,06,12,47,18.70
2012,10,06,12,48,18.80
2012,10,06,12,49,18.80
2012,10,06,12,50,18.80
2012,10,06,12,51,18.90
2012,10,06,12,52,18.90
2012,10,06,12,53,19.00
2012,10,06,12,54,19.00
2012,10,06,12,55,19.10
2012,10,06,12,56,19.10
2012,10,06,12,57,19.20
2012,10,06,12,58,19.20
2012,10,06,12,59,19.20
2012,10,06,13,00,19.30
2012,10,06,13,01,19.30
2012,10,06,13,02,19.40
2012,10,06,13,03,19.40
2012,10,06,13,04,19.50
2012,10,06,13,05,19.60
2012,10,06,13,06,19.70
2012,10,06,13,07,19.70
2012,10,06,13,08,19.80
2012,10,06,13,09,19.90
2012,10,06,13,10,20.00
2012,10,06,13,11,20.10
2012,10,06,13,12,20.10
2012,10,06,13,13,20.20
2012,10,06,13,14,20.20
2012,10,06,13,15,20.20
2012,10,06,13,16,20.20
2012,10,06,13,17,20.30
2012,10,06,13,18,20.30
2012,10,06,13,19,20.30
2012,10,06,13,20,20.30
2012,10,06,13,21,20.30
2012,10,06,13,22,20.20
2012,10,06,13,23,20.20
2012,10,06,13,24,20.20
2012,10,06,13,25,20.10
2012,10,06,13,26,20.20
2012,10,06,13,27,20.20
2012,10,06,13,28,20.20
2012,10,06,13,29,20.30
2012,10,06,13,30,20.40
2012,10,06,13,31,20.50
2012,10,06,13,32,20.60
2012,10,06,13,33,20.60
2012,10,06,13,34,20.60
2012,10,06,13,35,20.50
2012,10,06,13,36,20.50
2012,10,06,13,37,20.50
2012,10,06,13,38,20.60
2012,10,06,13,39,20.60
2012,10,06,13,40,20.60
2012,10,06,13,41,20.70
2012,10,06,13,42,20.80
2012,10,06,13,43,20.80
2012,10,06,13,44,20.90
2012,10,06,13,45,21.00
2012,10,06,13,46,21.00
2012,10,06,13,47,21.10
2012,10,06,13,48,21.10
2012,10,06,13,49,21.10
2012,10,06,13,50,21.20
2012,10,06,13,51,21.30
2012,10,06,13,52,21.40
2012,10,06,13,53,21.50
2012,10,06,13,54,21.50
2012,10,06,13,55,21.60
2012,10,06,13,56,21.70
2012,10,06,13,57,21.70
2012,10,06,13,58,21.80
2012,10,06,13,59,21.80
2012,10,06,14,00,21.70
2012,10,06,14,01,21.70
2012,10,06,14,02,21.80
2012,10,06,14,03,21.80
2012,10,06,14,04,21.80
2012,10,06,14,05,21.80
2012,10,06,14,06,21.70
2012,10,06,14,07,21.70
2012,10,06,14,08,21.70
2012,10,06,14,09,21.70
2012,10,06,14,10,21.70
2012,10,06,14,11,21.60
2012,10,06,14,12,21.60
2012,10,06,14,13,21.60
2012,10,06,14,14,21.60
2012,10,06,14,15,21.60
2012,10,06,14,16,21.60
2012,10,06,14,17,21.70
2012,10,06,14,18,21.80
2012,10,06,14,19,21.80
2012,10,06,14,20,21.80
2012,10,06,14,21,21.90
2012,10,06,14,22,21.90
2012,10,06,14,23,22.00
2012,10,06,14,24,21.90
2012,10,06,14,25,21.90
2012,10,06,14,26,21.90
2012,10,06,14,27,21.90
2012,10,06,14,28,22.00
2012,10,06,14,29,22.10
2012,10,06,14,30,22.10
2012,10,06,14,31,22.20
2012,10,06,14,32,22.20
2012,10,06,14,33,22.30
2012,10,06,14,34,22.30
2012,10,06,14,35,22.30
2012,10,06,14,36,22.30
2012,10,06,14,37,22.30
2012,10,06,14,38,22.40
2012,10,06,14,39,22.40
2012,10,06,14,40,22.50
2012,10,06,14,41,22.60
2012,10,06,14,42,22.60
2012,10,06,14,43,22.70
2012,10,06,14,44,22.80
2012,10,06,14,45,22.80
2012,10,06,14,46,22.80
2012,10,06,14,47,22.80
2012,10,06,14,48,22.90
2012,10,06,14,49,22.90
2012,10,06,14,50,23.00
2012,10,06,14,51,23.00
2012,10,06,14,52,23.00
2012,10,06,14,53,23.00
2012,10,06,14,54,22.90
2012,10,06,14,55,22.90
2012,10,06,14,56,22.90
2012,10,06,14,57,22.90
2012,10,06,14,58,23.00
2012,10,06,14,59,23.10
2012,10,06,15,00,23.10
2012,10,06,15,01,23.20
2012,10,06,15,02,23.20
2012,10,06,15,03,23.20
2012,10,06,15,04,23.20
2012,10,06,15,05,23.10
2012,10,06,15,06,23.10
2012,10,06,15,07,23.10
2012,10,06,15,08,23.10
2012,10,06,15,09,23.10
2012,10,06,15,10,23.10
2012,10,06,15,11,23.10
2012,10,06,15,12,23.10
2012,10,06,15,13,23.20
2012,10,06,15,14,23.20
2012,10,06,15,15,23.20
2012,10,06,15,16,23.30
2012,10,06,15,17,23.30
2012,10,06,15,18,23.30
2012,10,06,15,19,23.30
2012,10,06,15,20,23.40
2012,10,06,15,21,23.40
2012,10,06,15,22,23.50
2012,10,06,15,23,23.60
2012,10,06,15,24,23.60
2012,10,06,15,25,23.70
2012,10,06,15,26,23.70
2012,10,06,15,27,23.70
2012,10,06,15,28,23.80
2012,10,06,15,29,23.80
2012,10,06,15,30,23.80
2012,10,06,15,31,23.80
2012,10,06,15,32,23.80
2012,10,06,15,33,23.70
2012,10,06,15,34,23.70
2012,10,06,15,35,23.70
2012,10,06,15,36,23.70
2012,10,06,15,37,23.70
2012,10,06,15,38,23.70
2012,10,06,15,39,23.70
2012,10,06,15,40,23.70
2012,10,06,15,41,23.70
2012,10,06,15,42,23.80
2012,10,06,15,43,23.80
2012,10,06,15,44,23.90
2012,10,06,15,45,23.90
2012,10,06,15,46,23.90
2012,10,06,15,47,23.90
2012,10,06,15,48,23.80
2012,10,06,15,49,23.80
2012,10,06,15,50,23.80
2012,10,06,15,51,23.80
2012,10,06,15,52,23.80
2012,10,06,15,53,23.70
2012,10,06,15,54,23.70
2012,10,06,15,55,23.70
2012,10,06,15,56,23.70
2012,10,06,15,57,23.70
2012,10,06,15,58,23.70
2012,10,06,15,59,23.70
2012,10,06,16,00,23.60
2012,10,06,16,01,23.60
2012,10,06,16,02,23.60
2012,10,06,16,03,23.60
2012,10,06,16,04,23.60
2012,10,06,16,05,23.60
2012,10,06,16,06,23.60
2012,10,06,16,07,23.60
2012,10,06,16,08,23.60
2012,10,06,16,09,23.70
2012,10,06,16,10,23.70
2012,10,06,16,11,23.70
2012,10,06,16,12,23.70
2012,10,06,16,13,23.70
2012,10,06,16,14,23.70
2012,10,06,16,15,23.70
2012,10,06,16,16,23.70
2012,10,06,16,17,23.80
2012,10,06,16,18,23.80
2012,10,06,16,19,23.80
2012,10,06,16,20,23.80
2012,10,06,16,21,23.70
2012,10,06,16,22,23.60
2012,10,06,16,23,23.50
2012,10,06,16,24,23.50
2012,10,06,16,25,23.40
2012,10,06,16,26,23.30
2012,10,06,16,27,23.30
2012,10,06,16,28,23.30
2012,10,06,16,29,23.30
2012,10,06,16,30,23.30
2012,10,06,16,31,23.30
2012,10,06,16,32,23.20
2012,10,06,16,33,23.20
2012,10,06,16,34,23.20
2012,10,06,16,35,23.20
2012,10,06,16,36,23.10
2012,10,06,16,37,23.10
2012,10,06,16,38,23.10
2012,10,06,16,39,23.10
2012,10,06,16,40,23.10
2012,10,06,16,41,23.10
2012,10,06,16,42,23.10
2012,10,06,16,43,23.10
2012,10,06,16,44,23.10
2012,10,06,16,45,23.10
2012,10,06,16,46,23.20
2012,10,06,16,47,23.20
2012,10,06,16,48,23.20
2012,10,06,16,49,23.20
2012,10,06,16,50,23.20
2012,10,06,16,51,23.20
2012,10,06,16,52,23.20
2012,10,06,16,53,23.20
2012,10,06,16,54,23.20
2012,10,06,16,55,23.20
2012,10,06,16,56,23.20
2012,10,06,16,57,23.20
2012,10,06,16,58,23.20
2012,10,06,16,59,23.20
2012,10,06,17,00,23.20
2012,10,06,17,01,23.20
2012,10,06,17,02,23.20
2012,10,06,17,03,23.20
2012,10,06,17,04,23.20
2012,10,06,17,05,23.20
2012,10,06,17,06,23.20
2012,10,06,17,07,23.20
2012,10,06,17,08,23.20
2012,10,06,17,09,23.20
2012,10,06,17,10,23.20
2012,10,06,17,11,23.20
2012,10,06,17,12,23.20
2012,10,06,17,13,23.20
2012,10,06,17,14,23.20
2012,10,06,17,15,23.10
2012,10,06,17,16,23.20
2012,10,06,17,17,23.10
2012,10,06,17,18,23.10
2012,10,06,17,19,23.10
2012,10,06,17,20,23.10
2012,10,06,17,21,23.10
2012,10,06,17,22,23.10
2012,10,06,17,23,23.10
2012,10,06,17,24,23.10
2012,10,06,17,25,23.10
2012,10,06,17,26,23.10
2012,10,06,17,27,23.00
2012,10,06,17,28,23.00
2012,10,06,17,29,23.00
2012,10,06,17,30,22.90
2012,10,06,17,31,22.90
2012,10,06,17,32,22.90
2012,10,06,17,33,22.80
2012,10,06,17,34,22.80
2012,10,06,17,35,22.80
2012,10,06,17,36,22.80
2012,10,06,17,37,22.80
2012,10,06,17,38,22.80
2012,10,06,17,39,22.80
2012,10,06,17,40,22.80
2012,10,06,17,41,22.80
2012,10,06,17,42,22.70
2012,10,06,17,43,22.70
2012,10,06,17,44,22.70
2012,10,06,17,45,22.70
2012,10,06,17,46,22.70